ABR3827 EKCH-EBLG

Flight info

Callsign ABR3827
Flight time 1h 8m
Altitude 36000
Route NEXEN T503 MICOS N850 ELSOB Y348 MAWEQ Z718 OSNAD M170 HMM N853 IRBUP Z717 NEREL T855 LNO
Aircraft B738/M-SDE2E3FGHIRWXY/LB1

Departure

Time 2026-04-22 15:51
Airport Copenhagen Kastrup Airport (EKCH)

Arrival

Time 2026-04-22 16:59
Airport Liège Airport (EBLG)
Time Latitude Longitude Altitude Speed Heading
2026-04-22 15:29 55.61717 12.67181 23 ft 0 kts 79°
2026-04-22 15:35 55.61715 12.67168 47 ft 3 kts 79°
2026-04-22 15:35 55.61711 12.67133 39 ft 3 kts 79°
2026-04-22 15:35 55.61708 12.67102 22 ft 2 kts 79°
2026-04-22 15:36 55.61706 12.67070 28 ft 3 kts 98°
2026-04-22 15:36 55.61711 12.67040 27 ft 3 kts 137°
2026-04-22 15:36 55.61727 12.67023 28 ft 3 kts 167°
2026-04-22 15:36 55.61743 12.67018 26 ft 1 kts 169°
2026-04-22 15:37 55.61747 12.67016 26 ft 0 kts 169°
2026-04-22 15:40 55.61745 12.67017 23 ft 1 kts 169°
2026-04-22 15:40 55.61730 12.67022 25 ft 5 kts 169°
2026-04-22 15:41 55.61688 12.67036 23 ft 7 kts 169°
2026-04-22 15:41 55.61640 12.67053 24 ft 7 kts 168°
2026-04-22 15:41 55.61593 12.67070 23 ft 7 kts 168°
2026-04-22 15:41 55.61542 12.67087 23 ft 9 kts 169°
2026-04-22 15:42 55.61478 12.67110 23 ft 10 kts 169°
2026-04-22 15:42 55.61409 12.67131 24 ft 10 kts 174°
2026-04-22 15:42 55.61342 12.67120 23 ft 10 kts 196°
2026-04-22 15:42 55.61287 12.67059 26 ft 9 kts 232°
2026-04-22 15:43 55.61293 12.66952 24 ft 10 kts 301°
2026-04-22 15:43 55.61338 12.66830 23 ft 13 kts 303°
2026-04-22 15:43 55.61389 12.66693 24 ft 13 kts 303°
2026-04-22 15:43 55.61437 12.66561 22 ft 13 kts 303°
2026-04-22 15:44 55.61484 12.66433 25 ft 12 kts 303°
2026-04-22 15:44 55.61531 12.66307 23 ft 13 kts 303°
2026-04-22 15:44 55.61581 12.66175 24 ft 13 kts 303°
2026-04-22 15:44 55.61629 12.66044 28 ft 13 kts 303°
2026-04-22 15:45 55.61681 12.65904 26 ft 14 kts 303°
2026-04-22 15:45 55.61732 12.65767 28 ft 13 kts 303°
2026-04-22 15:45 55.61787 12.65624 24 ft 14 kts 304°
2026-04-22 15:45 55.61840 12.65481 22 ft 14 kts 303°
2026-04-22 15:46 55.61894 12.65333 22 ft 15 kts 303°
2026-04-22 15:46 55.61949 12.65182 23 ft 14 kts 303°
2026-04-22 15:46 55.62005 12.65030 22 ft 15 kts 303°
2026-04-22 15:46 55.62061 12.64879 24 ft 14 kts 303°
2026-04-22 15:47 55.62111 12.64742 26 ft 11 kts 300°
2026-04-22 15:47 55.62088 12.64630 23 ft 11 kts 216°
2026-04-22 15:47 55.62013 12.64542 23 ft 14 kts 213°
2026-04-22 15:47 55.61956 12.64408 23 ft 14 kts 257°
2026-04-22 15:48 55.61939 12.64244 24 ft 13 kts 259°
2026-04-22 15:48 55.61918 12.64117 25 ft 10 kts 231°
2026-04-22 15:48 55.61857 12.64072 23 ft 10 kts 184°
2026-04-22 15:48 55.61784 12.64078 23 ft 11 kts 176°
2026-04-22 15:49 55.61706 12.64087 24 ft 11 kts 176°
2026-04-22 15:49 55.61630 12.64074 26 ft 11 kts 209°
2026-04-22 15:49 55.61568 12.63981 26 ft 13 kts 221°
2026-04-22 15:49 55.61499 12.63872 27 ft 17 kts 221°
2026-04-22 15:50 55.61246 12.63481 26 ft 77 kts 221°
2026-04-22 15:50 55.60715 12.62658 29 ft 124 kts 221°
2026-04-22 15:50 55.59955 12.61511 54 ft 158 kts 222°
2026-04-22 15:50 55.59097 12.60412 540 ft 156 kts 219°
2026-04-22 15:51 55.58202 12.59337 820 ft 155 kts 223°
2026-04-22 15:51 55.57245 12.58026 1457 ft 184 kts 224°
2026-04-22 15:51 55.56239 12.56525 2469 ft 205 kts 228°
2026-04-22 15:51 55.55041 12.54786 2840 ft 240 kts 223°
2026-04-22 15:52 55.53621 12.52906 3190 ft 267 kts 221°
2026-04-22 15:52 55.52095 12.50963 4063 ft 272 kts 219°
2026-04-22 15:52 55.50538 12.49018 5003 ft 277 kts 219°
2026-04-22 15:52 55.48952 12.47056 5943 ft 280 kts 218°
2026-04-22 15:53 55.47338 12.45068 6645 ft 285 kts 218°
2026-04-22 15:53 55.45696 12.43054 6966 ft 290 kts 218°
2026-04-22 15:53 55.44069 12.41064 7021 ft 287 kts 218°
2026-04-22 15:53 55.42421 12.39053 7024 ft 289 kts 218°
2026-04-22 15:54 55.40759 12.37027 7053 ft 293 kts 218°
2026-04-22 15:54 55.39073 12.34973 7597 ft 297 kts 218°
2026-04-22 15:54 55.37377 12.32911 8591 ft 296 kts 217°
2026-04-22 15:54 55.35672 12.30840 9484 ft 300 kts 217°
2026-04-22 15:55 55.33941 12.28737 10334 ft 304 kts 217°
2026-04-22 15:55 55.32185 12.26609 11130 ft 308 kts 216°
2026-04-22 15:55 55.30433 12.24486 11940 ft 312 kts 216°
2026-04-22 15:55 55.28639 12.22318 12770 ft 315 kts 216°
2026-04-22 15:56 55.26826 12.20126 13594 ft 319 kts 215°
2026-04-22 15:56 55.24990 12.17910 14372 ft 322 kts 215°
2026-04-22 15:56 55.23132 12.15670 15101 ft 326 kts 214°
2026-04-22 15:56 55.21254 12.13410 15821 ft 329 kts 214°
2026-04-22 15:57 55.19364 12.11108 16553 ft 333 kts 216°
2026-04-22 15:57 55.17480 12.08717 17274 ft 337 kts 216°
2026-04-22 15:57 55.15581 12.06275 17990 ft 340 kts 216°
2026-04-22 15:57 55.13693 12.03842 18673 ft 344 kts 216°
2026-04-22 15:58 55.11756 12.01352 19316 ft 347 kts 216°
2026-04-22 15:58 55.09804 11.98851 19974 ft 349 kts 216°
2026-04-22 15:58 55.07837 11.96339 20633 ft 352 kts 215°
2026-04-22 15:58 55.05856 11.93813 21270 ft 354 kts 215°
2026-04-22 15:59 55.03857 11.91271 21908 ft 357 kts 215°
2026-04-22 15:59 55.01843 11.88713 22536 ft 360 kts 215°
2026-04-22 15:59 54.99811 11.86136 23154 ft 363 kts 215°
2026-04-22 15:59 54.97763 11.83541 23762 ft 365 kts 214°
2026-04-22 16:00 54.95699 11.80931 24270 ft 369 kts 214°
2026-04-22 16:00 54.93640 11.78330 24719 ft 373 kts 213°
2026-04-22 16:00 54.91528 11.75667 25165 ft 377 kts 213°
2026-04-22 16:00 54.89393 11.72976 25615 ft 381 kts 213°
2026-04-22 16:01 54.87236 11.70261 26054 ft 385 kts 212°
2026-04-22 16:01 54.85063 11.67527 26570 ft 386 kts 212°
2026-04-22 16:01 54.82860 11.64765 26773 ft 398 kts 211°
2026-04-22 16:01 54.80578 11.61912 26861 ft 411 kts 211°
2026-04-22 16:02 54.78224 11.58973 26972 ft 423 kts 211°
2026-04-22 16:02 54.75831 11.55991 27084 ft 435 kts 211°
2026-04-22 16:02 54.73352 11.52901 27265 ft 443 kts 211°
2026-04-22 16:02 54.70836 11.49765 27577 ft 448 kts 211°
2026-04-22 16:03 54.68298 11.46604 27991 ft 450 kts 211°
2026-04-22 16:03 54.65750 11.43435 28408 ft 453 kts 210°
2026-04-22 16:03 54.63187 11.40253 28764 ft 456 kts 210°
2026-04-22 16:03 54.60598 11.37047 29115 ft 459 kts 210°
2026-04-22 16:04 54.57995 11.33829 29458 ft 462 kts 210°
2026-04-22 16:04 54.55409 11.30639 29801 ft 465 kts 210°
2026-04-22 16:04 54.52764 11.27405 30136 ft 467 kts 209°
2026-04-22 16:04 54.50100 11.24167 30451 ft 470 kts 209°
2026-04-22 16:05 54.47422 11.20920 30717 ft 473 kts 209°
2026-04-22 16:05 54.44727 11.17654 30991 ft 475 kts 209°
2026-04-22 16:05 54.42024 11.14379 31309 ft 476 kts 209°
2026-04-22 16:05 54.39324 11.11107 31687 ft 475 kts 208°
2026-04-22 16:06 54.36628 11.07846 32081 ft 474 kts 208°
2026-04-22 16:06 54.33934 11.04595 32441 ft 474 kts 208°
2026-04-22 16:06 54.31324 11.01250 32770 ft 478 kts 214°
2026-04-22 16:06 54.28929 10.97240 33106 ft 486 kts 224°
2026-04-22 16:07 54.26836 10.92665 33464 ft 489 kts 228°
2026-04-22 16:07 54.24812 10.88000 33805 ft 489 kts 228°
2026-04-22 16:07 54.22781 10.83331 34130 ft 489 kts 227°
2026-04-22 16:07 54.20727 10.78713 34455 ft 488 kts 227°
2026-04-22 16:08 54.18657 10.74138 34779 ft 486 kts 227°
2026-04-22 16:08 54.16588 10.69604 35150 ft 483 kts 227°
2026-04-22 16:08 54.14557 10.65153 35496 ft 480 kts 228°
2026-04-22 16:08 54.12511 10.60668 35828 ft 478 kts 228°
2026-04-22 16:09 54.10470 10.56196 36119 ft 477 kts 229°
2026-04-22 16:09 54.08431 10.51737 36340 ft 478 kts 229°
2026-04-22 16:09 54.04314 10.42767 36320 ft 481 kts 229°
2026-04-22 16:10 54.00219 10.33866 36311 ft 474 kts 229°
2026-04-22 16:10 53.96172 10.25083 36326 ft 471 kts 229°
2026-04-22 16:11 53.92191 10.16343 36337 ft 471 kts 230°
2026-04-22 16:11 53.88191 10.07567 36338 ft 470 kts 230°
2026-04-22 16:12 53.84186 9.98824 36347 ft 469 kts 230°
2026-04-22 16:12 53.80176 9.90109 36347 ft 469 kts 230°
2026-04-22 16:13 53.76160 9.81413 36352 ft 469 kts 230°
2026-04-22 16:13 53.72169 9.72795 36346 ft 469 kts 230°
2026-04-22 16:14 53.68149 9.64147 36369 ft 468 kts 230°
2026-04-22 16:14 53.63483 9.56650 36369 ft 461 kts 212°
2026-04-22 16:15 53.57878 9.51585 36373 ft 456 kts 202°
2026-04-22 16:15 53.52206 9.46963 36368 ft 457 kts 203°
2026-04-22 16:16 53.46376 9.42870 36370 ft 452 kts 194°
2026-04-22 16:16 53.40350 9.39834 36353 ft 452 kts 193°
2026-04-22 16:17 53.34308 9.36834 36356 ft 453 kts 193°
2026-04-22 16:17 53.28272 9.33773 36357 ft 454 kts 194°
2026-04-22 16:18 53.22269 9.30705 36351 ft 455 kts 194°
2026-04-22 16:18 53.16214 9.27616 36353 ft 455 kts 194°
2026-04-22 16:19 53.10147 9.24532 36363 ft 456 kts 194°
2026-04-22 16:19 53.04116 9.21477 36361 ft 457 kts 194°
2026-04-22 16:20 52.98036 9.18406 36364 ft 457 kts 194°
2026-04-22 16:20 52.92108 9.14535 36363 ft 460 kts 206°
2026-04-22 16:21 52.86473 9.09480 36354 ft 461 kts 207°
2026-04-22 16:21 52.80829 9.04430 36355 ft 461 kts 206°
2026-04-22 16:22 52.72357 8.97036 36351 ft 461 kts 206°
2026-04-22 16:23 52.63841 8.89646 36356 ft 461 kts 206°
2026-04-22 16:23 52.58166 8.84733 36350 ft 461 kts 206°
2026-04-22 16:24 52.49694 8.77423 36353 ft 460 kts 206°
2026-04-22 16:25 52.44024 8.72547 36352 ft 460 kts 206°
2026-04-22 16:25 52.35521 8.65262 36351 ft 460 kts 206°
2026-04-22 16:26 52.29973 8.60221 36341 ft 460 kts 217°
2026-04-22 16:26 52.27643 8.56656 36364 ft 460 kts 230°
2026-04-22 16:26 52.25814 8.52387 36352 ft 459 kts 243°
2026-04-22 16:27 52.23455 8.42742 36361 ft 458 kts 250°
2026-04-22 16:27 52.21134 8.33069 36351 ft 458 kts 246°
2026-04-22 16:28 52.17700 8.24355 36354 ft 459 kts 227°
2026-04-22 16:28 52.13271 8.16964 36357 ft 459 kts 225°
2026-04-22 16:29 52.08788 8.09547 36366 ft 459 kts 226°
2026-04-22 16:29 52.04351 8.02070 36362 ft 460 kts 226°
2026-04-22 16:30 51.99911 7.94600 36371 ft 460 kts 226°
2026-04-22 16:30 51.95494 7.87197 36363 ft 460 kts 226°
2026-04-22 16:31 51.91043 7.79755 36370 ft 459 kts 226°
2026-04-22 16:31 51.86537 7.72421 36350 ft 460 kts 220°
2026-04-22 16:32 51.81201 7.66905 36172 ft 450 kts 206°
2026-04-22 16:32 51.78430 7.64741 35665 ft 448 kts 205°
2026-04-22 16:32 51.75617 7.62528 35028 ft 451 kts 206°
2026-04-22 16:33 51.72799 7.60250 34365 ft 455 kts 206°
2026-04-22 16:33 51.69917 7.58098 33589 ft 457 kts 199°
2026-04-22 16:33 51.66891 7.56494 32827 ft 459 kts 195°
2026-04-22 16:33 51.63827 7.55021 32105 ft 460 kts 195°
2026-04-22 16:34 51.60754 7.53554 31400 ft 462 kts 195°
2026-04-22 16:34 51.57675 7.52046 30719 ft 462 kts 195°
2026-04-22 16:34 51.54604 7.50511 29951 ft 463 kts 195°
2026-04-22 16:34 51.51603 7.48607 29031 ft 467 kts 207°
2026-04-22 16:35 51.48994 7.45593 28110 ft 471 kts 222°
2026-04-22 16:35 51.46860 7.41596 27174 ft 474 kts 238°
2026-04-22 16:35 51.45312 7.36933 26252 ft 475 kts 244°
2026-04-22 16:35 51.43844 7.32180 25425 ft 475 kts 243°
2026-04-22 16:36 51.42300 7.27534 24794 ft 470 kts 239°
2026-04-22 16:36 51.40457 7.23254 24222 ft 464 kts 233°
2026-04-22 16:36 51.38519 7.19149 23554 ft 460 kts 232°
2026-04-22 16:36 51.36577 7.15111 22829 ft 456 kts 232°
2026-04-22 16:37 51.34683 7.11163 22174 ft 451 kts 232°
2026-04-22 16:37 51.32796 7.07199 21548 ft 446 kts 232°
2026-04-22 16:37 51.30936 7.03261 20976 ft 440 kts 233°
2026-04-22 16:37 51.29112 6.99383 20577 ft 433 kts 233°
2026-04-22 16:38 51.27321 6.95568 20159 ft 427 kts 233°
2026-04-22 16:38 51.25535 6.91765 19778 ft 431 kts 233°
2026-04-22 16:38 51.23728 6.87922 19384 ft 434 kts 233°
2026-04-22 16:38 51.21921 6.84086 18992 ft 430 kts 233°
2026-04-22 16:39 51.20171 6.80378 18603 ft 427 kts 233°
2026-04-22 16:39 51.18389 6.76607 18183 ft 424 kts 232°
2026-04-22 16:39 51.16617 6.72863 17747 ft 422 kts 232°
2026-04-22 16:39 51.14855 6.69146 17320 ft 419 kts 232°
2026-04-22 16:40 51.13101 6.65449 16897 ft 417 kts 232°
2026-04-22 16:40 51.11355 6.61776 16484 ft 415 kts 232°
2026-04-22 16:40 51.07800 6.54597 15664 ft 411 kts 226°
2026-04-22 16:41 51.05811 6.51362 15268 ft 408 kts 224°
2026-04-22 16:41 51.03812 6.48260 14879 ft 406 kts 223°
2026-04-22 16:41 51.01791 6.45155 14491 ft 403 kts 223°
2026-04-22 16:41 50.99786 6.42063 14102 ft 400 kts 223°
2026-04-22 16:42 50.97805 6.38983 13667 ft 398 kts 223°
2026-04-22 16:42 50.95841 6.35913 13242 ft 395 kts 223°
2026-04-22 16:42 50.93896 6.32863 12821 ft 392 kts 223°
2026-04-22 16:42 50.91966 6.29833 12400 ft 389 kts 223°
2026-04-22 16:43 50.90049 6.26824 11984 ft 387 kts 223°
2026-04-22 16:43 50.88171 6.23880 11591 ft 384 kts 223°
2026-04-22 16:43 50.86278 6.20917 11189 ft 381 kts 223°
2026-04-22 16:43 50.84394 6.17972 10796 ft 379 kts 223°
2026-04-22 16:44 50.82525 6.15053 10404 ft 376 kts 223°
2026-04-22 16:44 50.80668 6.12155 9994 ft 374 kts 223°
2026-04-22 16:44 50.78823 6.09279 9564 ft 371 kts 223°
2026-04-22 16:44 50.76991 6.06429 9132 ft 369 kts 223°
2026-04-22 16:45 50.75167 6.03593 8727 ft 367 kts 223°
2026-04-22 16:45 50.73436 6.00657 8362 ft 363 kts 227°
2026-04-22 16:45 50.71858 5.97725 8310 ft 347 kts 229°
2026-04-22 16:45 50.70354 5.94884 8294 ft 325 kts 228°
2026-04-22 16:46 50.68948 5.92261 8282 ft 301 kts 227°
2026-04-22 16:46 50.67630 5.89832 8288 ft 284 kts 227°
2026-04-22 16:46 50.66349 5.87492 8123 ft 280 kts 227°
2026-04-22 16:46 50.65083 5.85180 7886 ft 278 kts 227°
2026-04-22 16:47 50.63899 5.82780 7607 ft 278 kts 232°
2026-04-22 16:47 50.62781 5.80295 7345 ft 277 kts 233°
2026-04-22 16:47 50.62047 5.78655 7163 ft 277 kts 233°
2026-04-22 16:47 50.60570 5.75388 6831 ft 276 kts 232°
2026-04-22 16:48 50.59457 5.72947 6570 ft 274 kts 232°
2026-04-22 16:48 50.58354 5.70501 6307 ft 274 kts 235°
2026-04-22 16:48 50.57365 5.67945 6005 ft 275 kts 238°
2026-04-22 16:48 50.56416 5.65336 5748 ft 274 kts 239°
2026-04-22 16:49 50.55482 5.62749 5520 ft 273 kts 239°
2026-04-22 16:49 50.54535 5.60147 5180 ft 273 kts 239°
2026-04-22 16:49 50.53606 5.57608 4923 ft 272 kts 238°
2026-04-22 16:49 50.52654 5.55035 4627 ft 272 kts 239°
2026-04-22 16:50 50.51713 5.52483 4435 ft 268 kts 239°
2026-04-22 16:50 50.50772 5.49935 4097 ft 272 kts 239°
2026-04-22 16:50 50.49813 5.47380 3883 ft 269 kts 239°
2026-04-22 16:50 50.48875 5.44855 3707 ft 267 kts 240°
2026-04-22 16:51 50.47939 5.42326 3471 ft 267 kts 240°
2026-04-22 16:51 50.47004 5.39832 3320 ft 262 kts 238°
2026-04-22 16:51 50.45867 5.37580 3040 ft 265 kts 225°
2026-04-22 16:51 50.44581 5.35595 2990 ft 259 kts 222°
2026-04-22 16:52 50.43357 5.33618 2958 ft 247 kts 237°
2026-04-22 16:52 50.42849 5.31163 2961 ft 236 kts 271°
2026-04-22 16:52 50.43183 5.28707 2999 ft 230 kts 297°
2026-04-22 16:52 50.44067 5.26652 2984 ft 225 kts 316°
2026-04-22 16:53 50.45138 5.24940 2982 ft 214 kts 320°
2026-04-22 16:53 50.46179 5.23347 2965 ft 204 kts 320°
2026-04-22 16:53 50.47249 5.21964 2944 ft 194 kts 341°
2026-04-22 16:53 50.48467 5.21625 2982 ft 175 kts 11°
2026-04-22 16:54 50.49581 5.22186 3003 ft 167 kts 34°
2026-04-22 16:54 50.50426 5.23419 2999 ft 166 kts 45°
2026-04-22 16:54 50.51274 5.24684 2973 ft 170 kts 46°
2026-04-22 16:54 50.52123 5.25992 2995 ft 174 kts 46°
2026-04-22 16:55 50.52973 5.27332 3013 ft 172 kts 46°
2026-04-22 16:55 50.53806 5.28659 2995 ft 168 kts 46°
2026-04-22 16:55 50.54621 5.29948 2922 ft 165 kts 46°
2026-04-22 16:55 50.55422 5.31221 2739 ft 167 kts 46°
2026-04-22 16:56 50.56236 5.32515 2511 ft 165 kts 46°
2026-04-22 16:56 50.57041 5.33787 2298 ft 163 kts 44°
2026-04-22 16:56 50.57836 5.35048 2053 ft 162 kts 46°
2026-04-22 16:56 50.58604 5.36266 1862 ft 152 kts 47°
2026-04-22 16:57 50.59313 5.37389 1684 ft 140 kts 46°
2026-04-22 16:57 50.59988 5.38448 1482 ft 133 kts 46°
2026-04-22 16:57 50.60651 5.39525 1412 ft 140 kts 47°
2026-04-22 16:57 50.61344 5.40642 1265 ft 143 kts 45°
2026-04-22 16:58 50.61813 5.41363 1100 ft 143 kts 46°
2026-04-22 16:58 50.62740 5.42830 771 ft 143 kts 45°
2026-04-22 16:58 50.63428 5.43915 638 ft 132 kts 45°
2026-04-22 16:58 50.63987 5.44802 616 ft 96 kts 45°
2026-04-22 16:59 50.64371 5.45411 601 ft 61 kts 45°
2026-04-22 16:59 50.64581 5.45746 619 ft 25 kts 45°
2026-04-22 16:59 50.64670 5.45886 619 ft 17 kts 45°
2026-04-22 16:59 50.64752 5.46012 608 ft 12 kts 45°
2026-04-22 17:00 50.64752 5.46125 619 ft 11 kts 132°
2026-04-22 17:00 50.64632 5.46184 627 ft 11 kts 217°
2026-04-22 17:00 50.64572 5.46093 615 ft 13 kts 225°
2026-04-22 17:01 50.64508 5.45991 615 ft 13 kts 225°
2026-04-22 17:01 50.64445 5.45891 620 ft 13 kts 225°
2026-04-22 17:01 50.64383 5.45794 619 ft 12 kts 225°
2026-04-22 17:01 50.64321 5.45695 622 ft 13 kts 225°
2026-04-22 17:02 50.64255 5.45590 618 ft 14 kts 225°
2026-04-22 17:02 50.64184 5.45477 624 ft 15 kts 225°
2026-04-22 17:02 50.64112 5.45363 614 ft 14 kts 225°
2026-04-22 17:02 50.64043 5.45253 618 ft 14 kts 225°
2026-04-22 17:03 50.63975 5.45146 620 ft 13 kts 225°
2026-04-22 17:03 50.63911 5.45043 617 ft 13 kts 225°
2026-04-22 17:03 50.63848 5.44943 615 ft 13 kts 225°
2026-04-22 17:03 50.63791 5.44853 615 ft 9 kts 225°
2026-04-22 17:04 50.63753 5.44804 619 ft 6 kts 193°
2026-04-22 17:04 50.63719 5.44838 622 ft 3 kts 134°
2026-04-22 17:04 50.63704 5.44861 625 ft 2 kts 135°
2026-04-22 17:04 50.63698 5.44871 621 ft 0 kts 135°